Location: Aesch
(46.8833°N, 8.8000°E)
Time: 01:50:47
(UTC+00:00)

Daily predictions for brighter satellites

Satellite Brightness Start Highest point End
(mag) Time Altitude Azimuth Time Altitude Azimuth Time Altitude Azimuth
Cosmos 2344 4.1 02:53:31 52° E 02:53:31 52° E 03:00:02 10° NE
USA 215 3.7 03:19:26 10° E 03:25:43 53° NNE 03:25:43 53° NNE
Cosmos 2369 Rocket 4.1 03:33:15 10° SSE 03:37:48 26° ESE 03:42:22 10° NE
NOSS 3-3 (A) 4.4 03:44:28 71° NW 03:45:30 88° SW 03:54:00 10° SE
NOSS 3-3 (C) 4.4 03:44:32 71° NW 03:45:36 88° SW 03:54:06 10° SE
COSMO-SKYMED 1 4.3 03:43:56 10° SE 03:47:41 30° ENE 03:48:36 27° NE
Cosmos 1867 4.2 03:50:15 48° SSE 03:50:15 48° SSE 03:54:08 10° SSE
MOS 1-B Rocket 4.4 03:44:40 10° SSE 03:50:50 58° ENE 03:54:14 24° N
Cosmos 2208 Rocket 4.4 03:52:18 62° SE 03:52:18 62° SE 03:56:50 10° SSE
Tsikada Rocket 4.2 03:46:20 10° S 03:52:27 66° E 03:58:41 10° NNE
Gblst 52 Del rocket 4.3 03:54:35 87° SE 03:54:35 87° SE 04:01:13 10° ENE
Cosmos 1943 Rocket 2.0 04:06:38 84° SW 04:06:50 87° WNW 04:12:32 10° NNE
CZ-2C R/B 3.3 04:03:28 10° SE 04:08:48 55° ENE 04:13:24 14° N
SL-19 R/B 4.2 04:05:27 10° SSE 04:11:02 81° ENE 04:13:20 37° NNW
Cosmos 1241 Rocket 4.2 04:10:32 70° WNW 04:11:06 76° WSW 04:17:16 10° SSE
SL-8 R/B 3.7 04:16:23 75° NE 04:16:23 75° NE 04:20:58 10° E
CENTAUR R/B 2.4 04:16:08 59° WSW 04:17:18 75° NW 04:24:30 10° NE
Cosmos 2297 3.6 04:21:06 63° WSW 04:21:46 69° WNW 04:27:30 10° NNE
Iridium 2 4.4 04:23:07 10° SSE 04:26:48 53° E 04:30:31 10° NNE
NOSS 3-2 (A) 3.4 04:27:49 51° WNW 04:28:24 53° NW 04:34:53 10° NE
Cosmos 2278 Rocket 4.0 04:33:51 16° NNW 04:33:51 16° NNW 04:35:41 10° N
SKYMED 2 3.5 04:31:14 10° SSE 04:35:34 88° E 04:37:12 39° NNW
Envisat 3.0 04:30:30 10° NNE 04:35:37 80° ESE 04:40:42 10° S
NOSS 3-2 (C) 3.2 04:33:35 39° SW 04:35:49 75° NW 04:42:22 10° NE
Cosmos 2098 Rocket 3.1 04:37:55 10° S 04:41:43 76° E 04:46:36 10° N
Meteor 2-3 Rocket 3.8 04:36:55 10° SSW 04:42:27 55° WNW 04:48:05 10° N
Landsat 5 3.6 04:40:42 10° SSE 04:45:13 86° ENE 04:48:26 19° NNW
Cosmos 968 Rocket 3.4 04:42:38 23° SW 04:45:51 63° WNW 04:50:58 10° NNE
Meteor 2-13 Rocket 4.3 04:40:45 10° SSW 04:46:51 75° W 04:52:58 10° N
CZ-4B R/B 4.1 04:43:39 10° NNE 04:48:07 86° E 04:52:35 10° SSW
FALCON 9 DEB 4.4 04:49:58 26° NNE 04:49:58 26° NNE 04:51:36 10° NE
Genesis I 3.9 04:49:24 40° SW 04:49:24 40° SW 04:52:49 10° S
Cosmos 921 Rocket 3.1 04:50:35 49° WNW 04:51:13 54° WSW 04:55:33 10° S
Okean 3 Rocket 3.8 04:48:52 10° S 04:53:22 74° E 04:57:56 10° NNE
ATLAS 5 CENTAUR R/B 4.5 04:53:08 10° SE 04:55:15 14° ESE 04:57:29 10° ENE
DNEPR-1 R/B 3.9 04:53:15 31° NW 04:55:35 88° NE 05:01:15 10° SE
Cosmos 1833 4.3 04:51:16 17° NNW 04:55:42 76° ENE 05:01:27 10° SSE
H-2A R/B 3.5 04:52:03 10° SE 04:55:57 36° ENE 04:59:56 10° N
Cosmos 1812 2.7 04:56:57 49° NW 04:57:34 57° W 05:01:19 10° S
CBERS 1 LM4 rocket 4.3 04:53:58 10° NNE 04:58:49 79° WNW 05:03:48 10° SSW
ADEOS 3.9 04:53:54 10° NNE 04:59:08 67° ESE 05:04:20 10° S
USA 238 DEB 3.8 05:00:11 24° WSW 05:04:05 52° NW 05:10:52 10° NE
USA 238 3.8 05:00:14 23° WSW 05:04:11 52° NW 05:10:58 10° NE
Cosmos 2142 Rocket 4.4 04:57:57 10° NNW 05:04:16 73° W 05:10:37 10° S
Cosmos 1151 Rocket 3.0 05:01:35 21° NNW 05:04:25 58° W 05:08:43 10° S
Cosmos 1766 Rocket 3.4 05:02:15 10° SSW 05:06:34 73° W 05:10:55 10° N
CZ-2C R/B 3.7 05:02:21 10° NNE 05:07:07 53° E 05:12:03 10° S
Cosmos 2344 4.0 05:03:34 25° W 05:07:17 41° NNW 05:15:00 10° NE
Cosmos 2263 4.2 05:01:53 10° SSW 05:07:35 88° WNW 05:13:23 10° NNE
USA 215 3.3 05:02:10 10° SE 05:08:40 67° SW 05:13:03 22° WNW
Meteor PRIRODA 4.3 05:08:52 10° NNE 05:12:27 56° E 05:16:00 10° S
Meteor 1-31 Rocket 2.9 05:10:14 10° N 05:14:00 49° WNW 05:17:47 10° SSW
Cosmos 2279 Rocket 3.9 05:08:54 10° NNW 05:15:01 64° W 05:21:06 10° S
Cosmos 2297 Rocket 4.3 05:11:42 10° N 05:15:46 20° NE 05:19:48 10° E
Cosmos 1328 Rocket 3.5 05:12:45 10° NNW 05:17:06 61° W 05:21:23 10° S
IRAS Rocket 4.2 05:11:49 10° SSE 05:17:20 87° WSW 05:22:52 10° NNW
BREEZE-M DEB (TANK) 4.2 05:05:18 10° SW 05:17:59 53° SSE 05:21:36 10° ENE
Cosmos 2369 Rocket 2.3 05:16:02 10° SW 05:21:29 53° WNW 05:26:58 10° NNE
FALCON 9 DEB 3.6 05:21:07 32° WNW 05:22:06 41° NNW 05:25:20 10° NE
SMAP 4.5 05:18:25 10° NNE 05:22:50 41° E 05:27:14 10° S
Cosmos 1862 3.4 05:19:06 10° SSW 05:22:54 47° WNW 05:26:45 10° N
COSMO-SKYMED 1 3.4 05:19:58 10° SSW 05:23:48 30° W 05:25:48 21° NW
Nadezhda 4 Rocket 4.2 05:19:51 10° S 05:25:58 75° E 05:32:12 10° NNE
H-2A R/B 3.6 05:24:13 10° NNW 05:27:18 25° WNW 05:30:24 10° SW
H-2A R/B 4.2 05:29:48 10° NE 05:34:02 28° E 05:38:14 10° SSE
Meteor 2-15 Rocket 4.4 05:28:40 10° N 05:34:47 84° W 05:40:51 10° S
Cosmos 2228 Rocket 4.3 05:30:55 10° N 05:35:13 43° ENE 05:39:32 10° SSE
CZ-4B R/B 2.5 05:33:14 10° NNE 05:36:49 82° WNW 05:40:24 10° SSW
CZ-4B R/B 2.4 05:36:28 10° SSE 05:39:40 46° ENE 05:42:51 10° N
Cosmos 1408 Rocket 3.4 05:37:42 10° SSW 05:41:58 65° W 05:46:16 10° N
Cosmos 783 Rocket 4.5 05:38:17 10° NNW 05:43:27 66° WSW 05:48:35 10° S
CZ-4C R/B 4.1 05:42:18 10° SSW 05:44:47 21° W 05:46:01 17° WNW
DMSP B5D2-2 4.2 05:40:00 10° S 05:45:06 55° W 05:50:14 10° NNW
Cosmos 1656 Rocket 3.8 05:39:58 10° SW 05:45:10 47° WNW 05:50:27 10° NNE
Cosmos 1503 Rocket 4.1 05:40:19 10° SW 05:45:29 56° WNW 05:50:46 10° NNE
USA 32 4.3 05:41:35 10° N 05:46:51 75° E 05:52:05 10° S
Cosmos 1743 Rocket 3.7 05:44:54 10° S 05:49:17 81° E 05:53:40 10° N
CZ-2C R/B 3.8 05:45:03 10° SW 05:49:23 24° W 05:53:41 10° NW
Cosmos 2227 Rocket 4.1 05:46:42 10° N 05:51:17 24° NE 05:55:49 10° E
Cosmos 1943 Rocket 3.5 05:48:15 13° W 05:51:25 19° NW 05:55:26 10° N
FAST Rocket 3.9 05:48:54 10° S 05:51:30 89° NE 05:54:31 10° N
PSLV R/B 4.3 05:53:03 10° SSE 05:57:04 67° ENE 06:01:09 10° N
Cosmos 1777 Rocket 4.0 05:51:56 10° SSW 05:57:09 90° ENE 06:02:26 10° NNE
Cosmos 1515 Rocket 3.9 05:53:14 10° NNW 05:57:22 41° W 06:01:27 10° SSW
SL-8 R/B 4.1 05:54:22 12° WNW 05:58:39 52° SSW 06:03:17 10° SE
FALCON 9 DEB 4.2 05:56:51 13° NW 05:58:45 23° N 06:01:10 10° NE
CORIOLIS 4.5 05:54:47 10° NNE 06:00:16 75° ESE 06:05:42 10° S
Meteor 1-27 Rocket 3.8 05:54:56 10° NNW 06:00:28 59° W 06:06:04 10° S
Cosmos 1602 4.1 05:57:56 10° S 06:01:43 68° E 06:05:31 10° NNE
NOAA 6 4.1 05:57:13 10° NNE 06:02:23 87° ESE 06:07:30 10° SSW
COSMOS 2487 2.6 06:01:21 10° NNW 06:04:42 68° ENE 06:08:02 10° SSE
Cosmos 773 Rocket 4.3 06:00:01 10° NNW 06:05:03 48° WSW 06:10:00 10° S
FALCON 9 DEB 4.2 06:03:16 11° NW 06:05:26 23° N 06:07:48 10° ENE
SJ 16-02 1.3 06:02:19 10° SSW 06:06:42 78° WNW 06:11:06 10° NNE
FALCON 9 DEB 4.2 06:05:15 11° NW 06:07:32 23° N 06:09:54 10° ENE
CENTAUR R/B 3.7 06:03:45 10° W 06:09:18 28° NNW 06:15:42 10° NE
Alouette 2 Rocket 3.3 06:07:04 10° NNW 06:10:55 58° W 06:14:25 10° S
NOAA 12 4.3 06:08:20 10° N 06:13:27 51° WNW 06:18:29 10° SW
Envisat 4.4 06:10:53 10° NNW 06:13:59 17° WNW 06:17:06 10° W
Cosmos 1340 Rocket 2.9 06:10:58 10° SSW 06:14:49 53° WNW 06:18:45 10° N
SL-27 R/B 3.5 06:15:04 10° NW 06:18:13 29° WSW 06:21:20 10° SSW
Cosmos 1500 Rocket 3.8 06:13:55 10° SSW 06:18:14 48° WNW 06:22:36 10° N
Cosmos 1939 Rocket 3.3 06:16:21 10° N 06:20:03 38° WNW 06:23:40 10° SW
Cosmos 2219 4.5 06:16:55 10° NNW 06:22:09 37° NE 06:27:23 10° ESE
